• In Hungary
  • List of Countries
  • For 7 days
  • Water Temperature
  • Satellite Maps
  • Weather Map
  • News
  • Weather Widgets
  • user-avatar
    Login

    Hourly Weather Ptuj

    Today, 16 December, Saturday

    Time Temperature Precipitation Wind Pressure Humidity
    00:00 +3°C° 0.5 mm 2 mps 729 mmHg 88%
    01:00 +3°C° 0 mm 2 mps 730 mmHg 89%
    02:00 +4°C° 0.4 mm 1 mps 730 mmHg 89%
    03:00 +4°C° 0.4 mm 1 mps 730 mmHg 90%
    04:00 +4°C° 0.4 mm 1 mps 730 mmHg 90%
    05:00 +4°C° 0.2 mm 1 mps 731 mmHg 90%
    06:00 +4°C° 0.2 mm 1 mps 731 mmHg 90%
    07:00 +3°C° 0 mm 1 mps 732 mmHg 91%
    08:00 +4°C° 0.1 mm 1 mps 732 mmHg 90%
    09:00 +4°C° 0.1 mm 1 mps 733 mmHg 88%
    10:00 +5°C° 0.1 mm 1 mps 734 mmHg 87%
    11:00 +5°C° 0 mm 1 mps 734 mmHg 84%
    12:00 +6°C° 0 mm 1 mps 735 mmHg 82%
    13:00 +7°C° 0 mm 1 mps 735 mmHg 79%
    14:00 +6°C° 0 mm 1 mps 735 mmHg 82%
    15:00 +5°C° 0 mm 1 mps 736 mmHg 85%
    16:00 +4°C° 0 mm 1 mps 736 mmHg 88%
    17:00 +4°C° 0 mm 1 mps 737 mmHg 89%
    18:00 +3°C° 0 mm 1 mps 737 mmHg 89%
    19:00 +3°C° 0 mm 1 mps 737 mmHg 90%
    20:00 +3°C° 0 mm 1 mps 738 mmHg 89%
    21:00 +2°C° 0 mm 1 mps 739 mmHg 89%
    22:00 +2°C° 0 mm 1 mps 739 mmHg 88%
    23:00 +2°C° 0 mm 1 mps 740 mmHg 88%

    Tomorrow, 17 December, Sunday

    Time Temperature Precipitation Wind Pressure Humidity
    00:00 +2°C° 0 mm 1 mps 740 mmHg 89%
    01:00 +1°C° 0 mm 1 mps 740 mmHg 89%
    02:00 +1°C° 0 mm 1 mps 741 mmHg 89%
    03:00 +1°C° 0 mm 1 mps 741 mmHg 89%
    04:00 +1°C° 0 mm 1 mps 741 mmHg 89%
    05:00 +1°C° 0 mm 1 mps 742 mmHg 88%
    06:00 +1°C° 0 mm 1 mps 742 mmHg 88%
    07:00 0°C° 0 mm 1 mps 742 mmHg 88%
    08:00 +1°C° 0 mm 1 mps 743 mmHg 84%
    09:00 +2°C° 0 mm 1 mps 743 mmHg 81%
    10:00 +3°C° 0 mm 1 mps 744 mmHg 77%
    11:00 +4°C° 0 mm 1 mps 744 mmHg 73%
    12:00 +5°C° 0 mm 1 mps 744 mmHg 68%
    13:00 +6°C° 0 mm 1 mps 744 mmHg 64%
    14:00 +5°C° 0 mm 1 mps 744 mmHg 68%
    15:00 +4°C° 0 mm 1 mps 744 mmHg 72%
    16:00 +2°C° 0 mm 0 mps 744 mmHg 75%
    17:00 +1°C° 0 mm 0 mps 745 mmHg 77%
    18:00 +2°C° 0 mm 1 mps 745 mmHg 79%
    19:00 +1°C° 0 mm 1 mps 746 mmHg 80%
    20:00 +1°C° 0 mm 1 mps 746 mmHg 80%
    21:00 +1°C° 0 mm 1 mps 746 mmHg 80%
    22:00 +1°C° 0 mm 1 mps 747 mmHg 80%
    23:00 +1°C° 0 mm 1 mps 747 mmHg 80%

    Day after tomorrow, 18 December, Monday

    Time Temperature Precipitation Wind Pressure Humidity
    00:00 +1°C° 0 mm 1 mps 747 mmHg 81%
    01:00 0°C° 0 mm 1 mps 747 mmHg 81%
    02:00 0°C° 0 mm 1 mps 747 mmHg 81%
    03:00 0°C° 0 mm 1 mps 747 mmHg 81%
    04:00 0°C° 0 mm 1 mps 747 mmHg 81%
    05:00 0°C° 0 mm 1 mps 748 mmHg 81%
    06:00 0°C° 0 mm 1 mps 748 mmHg 81%
    07:00 0°C° 0 mm 1 mps 748 mmHg 81%
    08:00 +1°C° 0 mm 1 mps 748 mmHg 78%
    09:00 +2°C° 0 mm 1 mps 748 mmHg 76%
    10:00 +2°C° 0 mm 0 mps 748 mmHg 73%
    11:00 +2°C° 0 mm 0 mps 748 mmHg 70%
    12:00 +4°C° 0 mm 1 mps 748 mmHg 67%
    13:00 +4°C° 0 mm 1 mps 747 mmHg 64%
    14:00 +3°C° 0 mm 1 mps 747 mmHg 69%
    15:00 +2°C° 0 mm 1 mps 747 mmHg 74%
    16:00 +1°C° 0 mm 1 mps 747 mmHg 79%
    17:00 0°C° 0 mm 0 mps 747 mmHg 81%
    18:00 0°C° 0 mm 0 mps 748 mmHg 83%
    19:00 -1°C° 0 mm 0 mps 748 mmHg 85%
    20:00 -1°C° 0 mm 0 mps 749 mmHg 85%
    21:00 -1°C° 0 mm 0 mps 749 mmHg 86%
    22:00 -1°C° 0 mm 0 mps 750 mmHg 86%
    23:00 -1°C° 0 mm 0 mps 750 mmHg 86%

    19 December, Tuesday

    Time Temperature Precipitation Wind Pressure Humidity
    00:00 -1°C° 0 mm 0 mps 750 mmHg 85%
    01:00 -1°C° 0 mm 0 mps 750 mmHg 85%
    02:00 -1°C° 0 mm 0 mps 751 mmHg 84%
    03:00 -1°C° 0 mm 0 mps 751 mmHg 84%
    04:00 -1°C° 0 mm 0 mps 751 mmHg 83%
    05:00 -1°C° 0 mm 0 mps 751 mmHg 83%
    06:00 -1°C° 0 mm 0 mps 752 mmHg 83%
    07:00 -1°C° 0 mm 0 mps 752 mmHg 82%
    08:00 0°C° 0 mm 0 mps 752 mmHg 79%
    09:00 +1°C° 0 mm 0 mps 753 mmHg 76%
    10:00 +2°C° 0 mm 0 mps 753 mmHg 72%
    11:00 +3°C° 0 mm 1 mps 753 mmHg 71%
    12:00 +4°C° 0 mm 1 mps 753 mmHg 70%
    13:00 +4°C° 0 mm 1 mps 753 mmHg 69%
    14:00 +4°C° 0 mm 1 mps 753 mmHg 73%
    15:00 +3°C° 0 mm 1 mps 753 mmHg 76%
    16:00 +3°C° 0 mm 1 mps 753 mmHg 80%
    17:00 +2°C° 0 mm 1 mps 753 mmHg 82%
    18:00 +2°C° 0 mm 1 mps 753 mmHg 83%
    19:00 +2°C° 0 mm 1 mps 754 mmHg 84%
    20:00 +2°C° 0 mm 1 mps 754 mmHg 84%
    21:00 +2°C° 0 mm 1 mps 754 mmHg 85%
    22:00 +1°C° 0 mm 1 mps 754 mmHg 85%
    23:00 +1°C° 0 mm 1 mps 754 mmHg 86%

    20 December, Wednesday

    Time Temperature Precipitation Wind Pressure Humidity
    00:00 +1°C° 0 mm 1 mps 754 mmHg 86%
    01:00 +1°C° 0 mm 1 mps 753 mmHg 87%
    02:00 +1°C° 0 mm 1 mps 753 mmHg 85%
    03:00 +1°C° 0 mm 1 mps 753 mmHg 84%
    04:00 +2°C° 0 mm 1 mps 752 mmHg 83%
    05:00 +2°C° 0.2 mm 1 mps 752 mmHg 83%
    06:00 +2°C° 0.2 mm 1 mps 752 mmHg 83%
    07:00 +2°C° 0.2 mm 1 mps 751 mmHg 83%
    08:00 +1°C° 0.5 mm 2 mps 751 mmHg 83%
    09:00 +2°C° 0.5 mm 2 mps 751 mmHg 83%
    10:00 +2°C° 0.5 mm 2 mps 751 mmHg 83%
    11:00 +3°C° 0.5 mm 2 mps 750 mmHg 84%
    12:00 +4°C° 0.5 mm 1 mps 750 mmHg 85%
    13:00 +4°C° 0.5 mm 1 mps 750 mmHg 86%
    14:00 +4°C° 0.4 mm 1 mps 750 mmHg 88%
    15:00 +4°C° 0.4 mm 1 mps 750 mmHg 89%
    16:00 +4°C° 0.4 mm 1 mps 750 mmHg 90%
    17:00 +4°C° 0.4 mm 1 mps 750 mmHg 90%
    18:00 +4°C° 0.4 mm 1 mps 750 mmHg 91%
    19:00 +4°C° 0.4 mm 1 mps 750 mmHg 91%
    20:00 +4°C° 0.3 mm 1 mps 751 mmHg 91%
    21:00 +4°C° 0.3 mm 1 mps 751 mmHg 91%
    22:00 +5°C° 0.3 mm 1 mps 751 mmHg 91%
    23:00 +5°C° 0.4 mm 1 mps 751 mmHg 91%

    21 December, Thursday

    Time Temperature Precipitation Wind Pressure Humidity
    00:00 +5°C° 0.4 mm 1 mps 751 mmHg 91%
    01:00 +5°C° 0.4 mm 1 mps 751 mmHg 92%
    02:00 +5°C° 0.1 mm 1 mps 751 mmHg 91%
    03:00 +5°C° 0.1 mm 1 mps 751 mmHg 90%
    04:00 +5°C° 0.1 mm 1 mps 751 mmHg 90%
    05:00 +5°C° 0.2 mm 1 mps 752 mmHg 90%
    06:00 +5°C° 0.2 mm 1 mps 752 mmHg 89%
    07:00 +5°C° 0.2 mm 1 mps 752 mmHg 89%
    08:00 +6°C° 0.1 mm 1 mps 752 mmHg 89%
    09:00 +6°C° 0.1 mm 1 mps 753 mmHg 89%
    10:00 +6°C° 0.1 mm 1 mps 753 mmHg 89%
    11:00 +7°C° 0.1 mm 1 mps 753 mmHg 89%
    12:00 +7°C° 0.1 mm 1 mps 752 mmHg 89%
    13:00 +8°C° 0.1 mm 1 mps 752 mmHg 89%
    14:00 +7°C° 0.2 mm 1 mps 752 mmHg 90%
    15:00 +7°C° 0.2 mm 1 mps 752 mmHg 90%
    16:00 +6°C° 0.2 mm 0 mps 752 mmHg 91%
    17:00 +7°C° 0.2 mm 1 mps 752 mmHg 91%
    18:00 +7°C° 0.2 mm 1 mps 752 mmHg 91%
    19:00 +7°C° 0.2 mm 1 mps 752 mmHg 92%
    20:00 +6°C° 0 mm 1 mps 752 mmHg 91%
    21:00 +6°C° 0 mm 1 mps 752 mmHg 91%
    22:00 +6°C° 0 mm 1 mps 752 mmHg 90%
    23:00 +6°C° 0 mm 1 mps 751 mmHg 90%
    Show more